Time,TemperatureF,DewpointF,PressureIn,WindDirection,WindDirectionDegrees,WindSpeedMPH,WindSpeedGustMPH,Humidity,HourlyPrecipIn,Conditions,Clouds,dailyrainin,SoftwareType,DateUTC
2013-03-20 00:10:00,58.0,45.0,30.13,NNE,26,0.0,-999.0,62,-99.99,,,0.05,weatherlink.com 1.10,2013-03-20 07:10:00,
2013-03-20 00:25:00,58.0,44.0,30.13,NNE,26,0.0,-999.0,61,-99.99,,,0.05,weatherlink.com 1.10,2013-03-20 07:25:00,
2013-03-20 00:40:00,58.1,45.0,30.13,NNE,26,0.0,-999.0,62,-99.99,,,0.05,weatherlink.com 1.10,2013-03-20 07:40:00,
2013-03-20 00:55:00,58.1,44.0,30.13,NNE,26,0.0,-999.0,60,-99.99,,,0.05,weatherlink.com 1.10,2013-03-20 07:55:00,
2013-03-20 01:10:00,57.9,44.0,30.13,ENE,75,0.0,-999.0,61,-99.99,,,0.05,weatherlink.com 1.10,2013-03-20 08:10:00,
2013-03-20 01:25:00,57.6,44.0,30.14,ENE,75,0.0,-999.0,61,-99.99,,,0.05,weatherlink.com 1.10,2013-03-20 08:25:00,
2013-03-20 01:40:00,57.6,44.0,30.13,ENE,75,0.0,-999.0,62,-99.99,,,0.05,weatherlink.com 1.10,2013-03-20 08:40:00,
2013-03-20 01:55:00,57.4,44.0,30.13,ENE,75,0.0,-999.0,62,-99.99,,,0.05,weatherlink.com 1.10,2013-03-20 08:55:00,
2013-03-20 02:10:00,57.1,44.0,30.14,ENE,75,0.0,-999.0,63,-99.99,,,0.05,weatherlink.com 1.10,2013-03-20 09:10:00,
2013-03-20 02:25:00,56.4,44.0,30.13,ENE,75,0.0,-999.0,64,-99.99,,,0.00,weatherlink.com 1.10,2013-03-20 09:25:00,
2013-03-20 02:40:00,56.0,44.0,30.14,ENE,75,0.0,-999.0,65,-99.99,,,0.00,weatherlink.com 1.10,2013-03-20 09:40:00,
2013-03-20 02:55:00,56.2,44.0,30.13,ENE,75,0.0,-999.0,63,-99.99,,,0.00,weatherlink.com 1.10,2013-03-20 09:55:00,
2013-03-20 03:10:00,56.4,44.0,30.12,ENE,75,0.0,-999.0,63,-99.99,,,0.00,weatherlink.com 1.10,2013-03-20 10:10:00,
2013-03-20 03:25:00,56.7,44.0,30.12,ENE,75,0.0,-999.0,63,-99.99,,,0.00,weatherlink.com 1.10,2013-03-20 10:25:00,
2013-03-20 03:40:00,56.5,44.0,30.12,ENE,75,0.0,-999.0,64,-99.99,,,0.00,weatherlink.com 1.10,2013-03-20 10:40:00,
2013-03-20 03:56:00,55.8,44.0,30.12,ENE,75,0.0,-999.0,65,-99.99,,,0.00,weatherlink.com 1.10,2013-03-20 10:56:00,
2013-03-20 04:11:00,55.5,44.0,30.12,ENE,75,0.0,-999.0,66,-99.99,,,0.00,weatherlink.com 1.10,2013-03-20 11:11:00,
2013-03-20 04:26:00,55.1,44.0,30.12,ENE,75,0.0,-999.0,67,-99.99,,,0.00,weatherlink.com 1.10,2013-03-20 11:26:00,
2013-03-20 04:41:00,54.6,44.0,30.13,ENE,75,0.0,-999.0,68,-99.99,,,0.00,weatherlink.com 1.10,2013-03-20 11:41:00,
2013-03-20 04:56:00,53.7,44.0,30.13,ENE,75,0.0,-999.0,69,-99.99,,,0.00,weatherlink.com 1.10,2013-03-20 11:56:00,
2013-03-20 05:11:00,53.9,45.0,30.12,ENE,75,0.0,-999.0,72,-99.99,,,0.00,weatherlink.com 1.10,2013-03-20 12:11:00,
2013-03-20 05:26:00,54.4,42.0,30.11,ENE,75,0.0,-999.0,63,-99.99,,,0.00,weatherlink.com 1.10,2013-03-20 12:26:00,
2013-03-20 05:41:00,54.5,44.0,30.12,ENE,75,0.0,-999.0,67,-99.99,,,0.00,weatherlink.com 1.10,2013-03-20 12:41:00,
2013-03-20 05:56:00,53.8,44.0,30.12,ENE,75,0.0,-999.0,69,-99.99,,,0.00,weatherlink.com 1.10,2013-03-20 12:56:00,
2013-03-20 06:11:00,53.3,44.0,30.12,ENE,75,0.0,-999.0,70,-99.99,,,0.00,weatherlink.com 1.10,2013-03-20 13:11:00,
2013-03-20 06:26:00,52.9,43.0,30.11,ENE,75,0.0,-999.0,69,-99.99,,,0.00,weatherlink.com 1.10,2013-03-20 13:26:00,
2013-03-20 06:41:00,53.3,43.0,30.12,ENE,74,0.0,-999.0,67,-99.99,,,0.00,weatherlink.com 1.10,2013-03-20 13:41:00,
2013-03-20 06:56:00,53.3,43.0,30.12,ENE,74,0.0,-999.0,67,-99.99,,,0.00,weatherlink.com 1.10,2013-03-20 13:56:00,
2013-03-20 07:11:00,53.4,43.0,30.13,ENE,74,0.0,-999.0,68,-99.99,,,0.00,weatherlink.com 1.10,2013-03-20 14:11:00,
2013-03-20 07:26:00,52.4,43.0,30.12,ENE,74,0.0,-999.0,70,-99.99,,,0.00,weatherlink.com 1.10,2013-03-20 14:26:00,
2013-03-20 07:41:00,51.9,43.0,30.13,ENE,74,0.0,-999.0,71,-99.99,,,0.00,weatherlink.com 1.10,2013-03-20 14:41:00,
2013-03-20 07:56:00,52.1,43.0,30.13,ENE,74,0.0,-999.0,72,-99.99,,,0.00,weatherlink.com 1.10,2013-03-20 14:56:00,
2013-03-20 08:11:00,52.1,43.0,30.15,ENE,74,0.0,-999.0,72,-99.99,,,0.00,weatherlink.com 1.10,2013-03-20 15:11:00,
2013-03-20 08:26:00,52.3,44.0,30.15,ENE,74,0.0,-999.0,73,-99.99,,,0.00,weatherlink.com 1.10,2013-03-20 15:26:00,
2013-03-20 08:41:00,52.7,44.0,30.15,ENE,74,0.0,-999.0,73,-99.99,,,0.00,weatherlink.com 1.10,2013-03-20 15:41:00,
2013-03-20 08:56:00,53.2,45.0,30.15,ENE,74,0.0,-999.0,73,-99.99,,,0.00,weatherlink.com 1.10,2013-03-20 15:56:00,
2013-03-20 09:11:00,54.1,45.0,30.16,ENE,74,0.0,-999.0,71,-99.99,,,0.00,weatherlink.com 1.10,2013-03-20 16:11:00,
2013-03-20 09:26:00,54.6,45.0,30.16,ENE,74,0.0,-999.0,69,-99.99,,,0.00,weatherlink.com 1.10,2013-03-20 16:26:00,
2013-03-20 09:41:00,55.9,45.0,30.16,ENE,74,0.0,-999.0,68,-99.99,,,0.00,weatherlink.com 1.10,2013-03-20 16:41:00,
2013-03-20 09:56:00,56.7,44.0,30.15,ENE,74,0.0,-999.0,63,-99.99,,,0.00,weatherlink.com 1.10,2013-03-20 16:56:00,
2013-03-20 10:11:00,57.0,45.0,30.16,ENE,74,0.0,-999.0,64,-99.99,,,0.00,weatherlink.com 1.10,2013-03-20 17:11:00,
2013-03-20 10:26:00,57.2,44.0,30.16,ENE,74,0.0,-999.0,61,-99.99,,,0.00,weatherlink.com 1.10,2013-03-20 17:26:00,
2013-03-20 10:41:00,58.6,42.0,30.16,ENE,74,0.0,-999.0,55,-99.99,,,0.00,weatherlink.com 1.10,2013-03-20 17:41:00,
2013-03-20 10:56:00,59.1,42.0,30.15,ENE,75,0.0,-999.0,54,-99.99,,,0.00,weatherlink.com 1.10,2013-03-20 17:56:00,
2013-03-20 11:26:00,59.0,44.0,30.15,ENE,67,0.0,-999.0,59,-99.99,,,0.00,weatherlink.com 1.10,2013-03-20 18:26:00,
2013-03-20 11:41:00,60.2,46.0,30.15,WNW,284,0.0,-999.0,59,-99.99,,,0.00,weatherlink.com 1.10,2013-03-20 18:41:00,
2013-03-20 11:56:00,59.0,43.0,30.16,WNW,284,0.0,-999.0,56,-99.99,,,0.00,weatherlink.com 1.10,2013-03-20 18:56:00,
2013-03-20 12:11:00,58.3,43.0,30.16,WNW,284,0.0,-999.0,58,-99.99,,,0.00,weatherlink.com 1.10,2013-03-20 19:11:00,
2013-03-20 12:26:00,58.3,41.0,30.16,WNW,284,0.0,-999.0,54,-99.99,,,0.00,weatherlink.com 1.10,2013-03-20 19:26:00,
2013-03-20 12:40:00,56.8,41.0,30.17,WNW,284,0.0,-999.0,56,-99.99,,,0.00,weatherlink.com 1.10,2013-03-20 19:40:00,
2013-03-20 12:55:00,55.5,42.0,30.17,WNW,284,0.0,-999.0,60,-99.99,,,0.00,weatherlink.com 1.10,2013-03-20 19:55:00,
2013-03-20 13:10:00,53.5,41.0,30.17,WNW,284,0.0,-999.0,64,-99.99,,,0.00,weatherlink.com 1.10,2013-03-20 20:10:00,
2013-03-20 13:25:00,56.0,43.0,30.16,ESE,114,0.0,-999.0,61,-99.99,,,0.00,weatherlink.com 1.10,2013-03-20 20:25:00,
2013-03-20 13:40:00,56.1,41.0,30.16,South,186,0.0,-999.0,58,-99.99,,,0.00,weatherlink.com 1.10,2013-03-20 20:40:00,
2013-03-20 13:55:00,55.7,41.0,30.16,ENE,59,0.0,-999.0,58,-99.99,,,0.00,weatherlink.com 1.10,2013-03-20 20:55:00,
2013-03-20 14:10:00,53.3,38.0,30.17,NW,304,0.0,-999.0,57,-99.99,,,0.00,weatherlink.com 1.10,2013-03-20 21:10:00,
2013-03-20 14:25:00,54.7,41.0,30.17,NW,304,0.0,-999.0,61,-99.99,,,0.00,weatherlink.com 1.10,2013-03-20 21:25:00,
2013-03-20 14:40:00,54.8,40.0,30.15,NW,321,0.0,-999.0,58,-99.99,,,0.00,weatherlink.com 1.10,2013-03-20 21:40:00,
2013-03-20 14:55:00,55.5,43.0,30.15,NW,321,0.0,-999.0,63,-99.99,,,0.00,weatherlink.com 1.10,2013-03-20 21:55:00,
2013-03-20 15:10:00,55.5,42.0,30.14,NW,321,0.0,-999.0,62,-99.99,,,0.00,weatherlink.com 1.10,2013-03-20 22:10:00,
2013-03-20 15:25:00,54.9,40.0,30.14,NW,321,0.0,-999.0,58,-99.99,,,0.00,weatherlink.com 1.10,2013-03-20 22:25:00,
2013-03-20 15:40:00,56.7,42.0,30.14,ENE,65,0.0,-999.0,59,-99.99,,,0.00,weatherlink.com 1.10,2013-03-20 22:40:00,
2013-03-20 15:55:00,58.2,47.0,30.12,ENE,65,0.0,-999.0,66,-99.99,,,0.00,weatherlink.com 1.10,2013-03-20 22:55:00,
2013-03-20 16:10:00,58.3,46.0,30.13,West,270,2.0,-999.0,64,-99.99,,,0.00,weatherlink.com 1.10,2013-03-20 23:10:00,
2013-03-20 16:25:00,55.1,46.0,30.13,West,266,0.0,-999.0,71,-99.99,,,0.00,weatherlink.com 1.10,2013-03-20 23:25:00,
2013-03-20 16:40:00,54.9,45.0,30.14,West,265,0.0,-999.0,70,-99.99,,,0.00,weatherlink.com 1.10,2013-03-20 23:40:00,
2013-03-20 16:55:00,55.1,46.0,30.15,West,266,0.0,-999.0,71,-99.99,,,0.00,weatherlink.com 1.10,2013-03-20 23:55:00,
2013-03-20 17:10:00,55.2,46.0,30.15,West,266,0.0,-999.0,71,-99.99,,,0.00,weatherlink.com 1.10,2013-03-21 00:10:00,
2013-03-20 17:25:00,55.1,46.0,30.15,West,265,0.0,-999.0,71,-99.99,,,0.00,weatherlink.com 1.10,2013-03-21 00:25:00,
2013-03-20 17:40:00,54.1,46.0,30.14,West,266,0.0,-999.0,75,-99.99,,,0.00,weatherlink.com 1.10,2013-03-21 00:40:00,
2013-03-20 17:55:00,54.1,47.0,30.14,West,266,0.0,-999.0,78,-99.99,,,0.00,weatherlink.com 1.10,2013-03-21 00:55:00,
2013-03-20 18:10:00,53.5,46.0,30.14,West,266,0.0,-999.0,76,-99.99,,,0.00,weatherlink.com 1.10,2013-03-21 01:10:00,
2013-03-20 18:25:00,53.3,46.0,30.14,West,266,0.0,-999.0,75,-99.99,,,0.00,weatherlink.com 1.10,2013-03-21 01:25:00,
2013-03-20 18:40:00,53.5,46.0,30.14,West,265,0.0,-999.0,76,-99.99,,,0.00,weatherlink.com 1.10,2013-03-21 01:40:00,
2013-03-20 18:55:00,53.3,46.0,30.14,West,266,0.0,-999.0,76,-99.99,,,0.00,weatherlink.com 1.10,2013-03-21 01:55:00,
2013-03-20 19:10:00,52.5,46.0,30.14,West,277,0.0,-999.0,78,-99.99,,,0.00,weatherlink.com 1.10,2013-03-21 02:10:00,
2013-03-20 19:25:00,52.5,47.0,30.14,WNW,292,0.0,-999.0,80,-99.99,,,0.00,weatherlink.com 1.10,2013-03-21 02:25:00,
2013-03-20 19:40:00,52.0,46.0,30.14,NW,326,0.0,-999.0,81,-99.99,,,0.00,weatherlink.com 1.10,2013-03-21 02:40:00,
2013-03-20 19:55:00,52.0,47.0,30.13,NW,326,0.0,-999.0,82,-99.99,,,0.00,weatherlink.com 1.10,2013-03-21 02:55:00,
2013-03-20 20:10:00,51.9,47.0,30.14,NNW,327,0.0,-999.0,83,-99.99,,,0.00,weatherlink.com 1.10,2013-03-21 03:10:00,